Погода Сумы

Хотите узнать прогноз погоды Сумы? Тогда Вам сюда: Погода Сумы

Поиск расширенной информации на нашем сайте:

Полезная информация:

Новости сайта



02.01.2020
Опубликован Долгосрочный прогноз погоды по городам России и ближнего зарубежья на январь 2020 года.
Карты: Прогноз на январь и февраль 2020 года, Сравнение прогнозируемой аномалии приземной температуры воздуха на январь 2020 года по разным моделям.




Погода Сумы - сегодня

Время (UTC), дата Ветер
(°,м/с) 
Видим.   Явления Облачность Т
(°С)
Тd
(°С)
f(%) Тe
(°С)
Pmin
(гПа)
dP
(гПа)
Po
(мм)
O2
(г/м3)
Тmin Tmax R s Состояние
почвы
12 02.07.20 240 (ЮЗ) 10 км    6/6 600 м 
[Cu hum]
+28.8 +15.5 44 +39  1013.2  -0.5  745  268           
15 02.07.20 210 (ЮЗ) 10 км    4/4 600 м 
[Cu hum]
+28.5 +15.3 45 +38  1012.7  -0.5  744  268           
18 02.07.20 170 (Ю) 10 км    3/0 верхняя 
[Ci fib]
+24.3 +17.6 66 +38  1013.1  0.1  744  271    +29.6       
21 02.07.20 170 (Ю) 10 км    ясно 
+20.2 +17.4 84 +34  1014.1  0.7  745  275           
00 03.07.20 160 (Ю) 10 км    ясно 
+18.3 +16.5 89 +31  1013.9  -0.4  744  277           
03 03.07.20 120 (ЮВ) 10 км    ясно 
+18.6 +15.2 81 +29  1014.6  0.7  745  278           
06 03.07.20 180 (Ю) 10 км    ясно 
+24.2 +16.6 63 +36  1014.5  0.3  745  272  +16.2         
09 03.07.20 160 (Ю) 20000 м    3/3 600 м 
[Cu hum]
+28.4 +14.8 43 +37  1014  -0.2  745  269           
12 03.07.20 130 (ЮВ) 20000 м    3/3 600 м 
[Cu hum]
+29.2 +14.6 41 +37  1012.9  -1  744  268           
15 03.07.20 170 (Ю) 20000 м    ясно 
+29.7 +14.9 41 +38  1011.7  -1.1  743  267           
18 03.07.20 120 (ЮВ) 10 км    ясно 
+26.4 +18.2 61 +41  1011.9  743  269    +30       
21 03.07.20 100 (В) 10 км    ясно 
+21.4 +15.7 70 +32  1012.5  0.2  744  275           
00 04.07.20 100 (В) 10 км    ясно 
+18.5 +14.2 76 +27  1012.1  -0.6  743  278           
03 04.07.20 110 (В) 10 км    3/0 средняя 
[Ac trans]
+19.2 +16.7 85 +32  1012.4  0.3  743  276           
06 04.07.20 050 (СВ) 10 км  гроза без осадков{ливн. осадки}  6/6 600 м кучево-дожд. 
[Cb cap]
+20.4 +18.5 89 +36  1012.5  0.2  744  274  +18    0.5     
09 04.07.20 170 (Ю) 10 км  {гроза}  3/0 верхняя 
[Ci fib]
+30.1 +19.6 53 +48  1011.4  -0.4  743  265           
12 04.07.20 160 (Ю) 10 км  {гроза}  8/0 верхняя 
[Ci fib]
+32.6 +18.3 43 +48  1010.8  -0.4  743  263           
15 04.07.20 350 (С) 10 км  гроза без осадков{ливн. осадки}  8/5 1000 м кучево-дожд., верхняя 
[Cb cap|Ci fib]
+27.3 +18.9 60 +44  1010.6  -0.5  743  268           
18 04.07.20 300 (СЗ) 10 км  {гроза, ливн. осадки}  8/0 средняя, верхняя 
[Ac trans|Ci fib]
+25.3 +19.8 72 +44  1011.2  0.4  743  269    +33.4  0.0     
21 04.07.20 280 (З) 10 км  зарница  8/4 1000 м кучево-дожд., средняя 
[Cb cap|Ac trans]
+23.7 +20 80 +43  1012.7  1.4  744  271           
00 05.07.20 080 (В) 10 км    8/0 средняя, верхняя 
[Ac trans|Ci fib]
+21.6 +18.9 85 +38  1010.1  -2.7  742  273           
03 05.07.20 360 (С) 10 км    4/0 верхняя 
[Ci fib]
+20.1 +17.3 84 +33  1010.9  0.6  742  275           
06 05.07.20 130 (ЮВ) 10 км    6/0 верхняя 
[Ci fib]
+25.7 +17.8 62 +40  1010.8  0.3  743  269  +19.9         
09 05.07.20 130 (ЮВ) 10 км    6/0 верхняя 
[Ci fib]
+29.9 +18.8 51 +46  1010  -0.5  742  265           
12 05.07.20 330 (СЗ) 10 км    8/0 средняя, верхняя 
[Ac trans|Ci fib]
+30.4 +18 48 +45  1009.5  -0.4  742  265           
Время (UTC), дата Ветер
(°,м/с) 
Видим.   Явления Облачность Т
(°С)
Тd
(°С)
f(%) Тe
(°С)
Pmin
(гПа)
dP
(гПа)
Po
(мм)
O2
(г/м3)
Тmin Tmax R s Состояние
почвы

Для получения пояснительной информации подведите курсор к названию столбца.

ПОГОДА Сумы - архив

Всё, что Вы хотите узнать о погоде Сумы - удобно и подробно!

Выберите нужную дату (начиная с 1 января 2019* года) и нажмите кнопку "Найти".
Будут отображены архивные сводки погоды по пункту Сумы, начиная с указанной даты.


Отображать данные в формате CSV (для использования в таблицах Excel)


Внимание! Наш архив погоды предназначен исключительно для личного некоммерческого использования в познавательных целях. Если Вам необходимы официальные справки о состоянии погоды (для производственных, юридических, коммерческих и т.п. целей), обращайтесь в органы Росгидромета.

*Примечание: данная дата относится к архиву по метеостанциям СССР (Россия, СНГ, Балтия).
Архив по метеостанциям Зарубежной Европы и Азии (кроме Китая) хранится 10 дней, по другим регионам земного шара (Китай, Африка, Америка, Австралия, Океания) - 1 день.

Сумы - район местоположения метеостанции


Название, широта, долгота, высота метеостанции:
Сумы 50.9°ш. 34.7°д. 181 м над ур. моря [Украина]

Дополнительная информация

В oтличие oт бoльшинства пoгoдных сайтoв мы публикуем пoдрoбную метеoинфoрмацию в детальнoм прoфессиoнальнoм фoрмате.

Характеристики температуры и влажнoсти вoздуха измеряются на высoте 2 м в тени вдали oт зданий и деревьев.
Скoрoсть ветра измеряется на высoте 10 м (на урoвне рoста челoвека скoрoсть ветра ниже в 1.5-2 раза). Если метеoстанция нахoдится в гoрoде или в лесу, тo скoрoсть ветра занижена на 2-4 м/с пo сравнению с oткрытым местoм. Скoрoсть ветра над акватoриями крупных рек и oзёр, а также на вершинах хoлмoв на 2-5 м/с выше, чем в oбычных услoвиях.
Атмoсфернoе давление в разных тoчках местнoсти мoжет значительнo oтличаться oт давления на метеoстанции, в зависимoсти oт услoвий рельефа (при пoдъёме на 10 м давление пoнижается примернo на 1 мм рт.ст.).